Location: Guayaquil
(2.1667°S, 79.9000°W)
Time: 20:21:03
(UTC-05:00)

Hubble Space Telescope - Visible Passes

Search period start: 23 September 2017 00:00
Search period end: 03 October 2017 00:00
Orbit: 538 x 541 km, 28.5° (Epoch: 23 September)

Date Brightness Start Highest point End Pass type
(mag) Time Alt. Az. Time Alt. Az. Time Alt. Az.
23 Sep 0.7 05:11:30 24° WSW 05:13:54 80° NNW 05:18:02 10° ENE visible
23 Sep 3.1 18:47:38 10° WSW 18:50:39 19° SSW 18:53:40 10° SSE visible
24 Sep 0.9 05:02:29 37° W 05:03:46 54° NNW 05:07:49 10° NE visible
24 Sep 3.4 18:38:17 10° WSW 18:40:34 14° SSW 18:42:52 10° S visible
25 Sep 1.4 04:53:28 37° NW 04:53:38 37° NNW 04:57:29 10° NE visible
26 Sep 2.3 04:44:24 24° N 04:44:24 24° N 04:47:00 10° NNE visible
27 Sep 3.1 04:35:18 14° N 04:35:18 14° N 04:36:23 10° NNE visible
